Regional Weather Roundup
Issued by NWS Little Rock, AR

Home | Current Version | Previous Version | Graphics & Text | Print | Product List | Glossary On
Versions: 1 2 3 4 5 6 7 8 9 10 11 12 13 14 15 16 17 18 19 20 21 22 23 24 25 26 27
000
ASUS44 KLZK 241805
RWRLZK

WEATHER ROUNDUP FOR ARKANSAS
NATIONAL WEATHER SERVICE LITTLE ROCK AR
100 PM CDT FRI OCT 24 2014

NOTE: "FAIR" INDICATES FEW OR NO CLOUDS BELOW 12,000 FEET WITH NO
SIGNIFICANT WEATHER AND/OR OBSTRUCTIONS TO VISIBILITY.

ARZ001-003-010-029-241900-
NORTHWEST ARKANSAS

CITY           SKY/WX    TMP DP  RH WIND       PRES   REMARKS
FAYETTEVILLE   SUNNY     72  59  63 S8        30.13F
6HR MIN TEMP:  46; 6HR MAX TEMP:  72;

FORT SMITH     SUNNY     71  55  56 CALM      30.13F
6HR MIN TEMP:  52; 6HR MAX TEMP:  72;

HARRISON       MOSUNNY   74  58  57 S5        30.13F
6HR MIN TEMP:  48; 6HR MAX TEMP:  74;

BENTONVILLE    SUNNY     72  57  60 SW10      30.13F
6HR MIN TEMP:  48; 6HR MAX TEMP:  72;

ROGERS         SUNNY     71  59  65 SW12      30.13F
6HR MIN TEMP:  48; 6HR MAX TEMP:  71;

SILOAM SPGS    SUNNY     72  57  60 SW9       30.14F
6HR MIN TEMP:  48; 6HR MAX TEMP:  72;

HIGHFILL       SUNNY     72  59  63 SW8       30.12F
6HR MIN TEMP:  48; 6HR MAX TEMP:  72;

SPRINGDALE     PTSUNNY   72  59  64 SW9       30.15F
$$

ARZ004-005-016-241900-
NORTH CENTRAL ARKANSAS

CITY           SKY/WX    TMP DP  RH WIND       PRES   REMARKS
BATESVILLE     PTSUNNY   70  54  56 CALM      30.13F
6HR MIN TEMP:  43; 6HR MAX TEMP:  70;

FLIPPIN        MOSUNNY   68  54  60 E5        30.13F
6HR MIN TEMP:  43; 6HR MAX TEMP:  68;

MTN HOME       MOSUNNY   68  55  63 VRB3      30.13F
6HR MIN TEMP:  45; 6HR MAX TEMP:  68;

$$

ARZ040-041-241900-
WEST CENTRAL ARKANSAS

CITY           SKY/WX    TMP DP  RH WIND       PRES   REMARKS
MENA           SUNNY     75  57  53 CALM      30.16F
MOUNT IDA      SUNNY     73  57  57 VRB5      30.13F
6HR MIN TEMP:  46; 6HR MAX TEMP:  75;

$$

ARZ009-017-025-026-028-241900-
NORTHEAST ARKANSAS

CITY           SKY/WX    TMP DP  RH WIND       PRES   REMARKS
CORNING          N/A     66  57  72 NW7       30.13F
JONESBORO      SUNNY     68  53  58 W6        30.13F
6HR MIN TEMP:  44; 6HR MAX TEMP:  68;

NEWPORT        PTSUNNY   71  52  51 W5        30.15F
6HR MIN TEMP:  44; 6HR MAX TEMP:  71;

WALNUT RIDGE   SUNNY     66  30  26 N3        30.13F
6HR MIN TEMP:  46; 6HR MAX TEMP:  66;

BLYTHEVILLE    PTSUNNY   72  51  47 CALM      30.12F
6HR MIN TEMP:  43; 6HR MAX TEMP:  72;

$$

ARZ022-023-033-042-044-241900-
CENTRAL ARKANSAS

CITY           SKY/WX    TMP DP  RH WIND       PRES   REMARKS
LITTLE ROCK    MOSUNNY   73  51  46 SW5       30.14F
6HR MIN TEMP:  48; 6HR MAX TEMP:  73;

N LITTLE ROCK  MOSUNNY   71  56  59 W5        30.14F
6HR MIN TEMP:  51; 6HR MAX TEMP:  72;

JACKSONVILLE   SUNNY     72  53  51 SW6       30.14F
6HR MIN TEMP:  43; 6HR MAX TEMP:  72;

SEARCY         SUNNY     73  54  51 VRB5      30.15F
6HR MIN TEMP:  44; 6HR MAX TEMP:  73;

HOT SPRINGS    SUNNY     72  54  53 CALM      30.15F
6HR MIN TEMP:  47; 6HR MAX TEMP:  72;

RUSSELLVILLE   CLOUDY    71  53  52 CALM      30.14F
6HR MIN TEMP:  45; 6HR MAX TEMP:  71;

$$

ARZ036-241900-
EAST ARKANSAS

CITY           SKY/WX    TMP DP  RH WIND       PRES   REMARKS
WEST MEMPHIS   SUNNY     70  51  51 W6        30.12F
6HR MIN TEMP:  42; 6HR MAX TEMP:  70;

$$

ARZ050-053-066-070-073-241900-
SOUTHWEST ARKANSAS

CITY           SKY/WX    TMP DP  RH WIND       PRES   REMARKS
ARKADELPHIA    FAIR      73  57  57 W5        30.16F
6HR MIN TEMP:  47; 6HR MAX TEMP:  72;

CAMDEN         SUNNY     73  50  43 NE5       30.16F
TEXARKANA      SUNNY     72  52  49 CALM      30.16F
6HR MIN TEMP:  48; 6HR MAX TEMP:  72;

EL DORADO      SUNNY     70  50  49 VRB3      30.16F
6HR MIN TEMP:  42; 6HR MAX TEMP:  71;

DE QUEEN       SUNNY     70  56  61 VRB5      30.15F
6HR MIN TEMP:  47; 6HR MAX TEMP:  70;

$$

ARZ056-057-069-241900-
SOUTHEAST ARKANSAS

CITY           SKY/WX    TMP DP  RH WIND       PRES   REMARKS
PINE BLUFF     SUNNY     70  50  49 CALM      30.15F
6HR MIN TEMP:  44; 6HR MAX TEMP:  71;

STUTTGART      SUNNY     72  52  49 SW6       30.15F
6HR MIN TEMP:  46; 6HR MAX TEMP:  72;

MONTICELLO     LGT RAIN  70  50  49 VRB5      30.15F
6HR MIN TEMP:  44; 6HR MAX TEMP:  71; 6HR PCP: TRACE;


$$





USA.gov is the U.S. government's official web portal to all federal, state and local government web resources and services.